Weather Service Report


178 
ASUS42 KTBW 160510
RWRFL 
FLORIDA REGIONAL WEATHER ROUNDUP
NATIONAL WEATHER SERVICE TAMPA BAY RUSKIN FL
100 AM EDT TUE SEP 16 2014

NOTE: "FAIR" INDICATES FEW OR NO CLOUDS BELOW 12,000 FEET WITH NO
SIGNIFICANT WEATHER AND/OR OBSTRUCTIONS TO VISIBILITY.


FLZ001>010-012>015-112-114-115-160600-
PANHANDLE FLORIDA
  
CITY           SKY/WX    TMP DP  RH WIND       PRES   REMARKS
PENSACOLA      CLOUDY    75  75 100 CALM      30.08F                  
PENSACOLA NAS  CLOUDY    77  75  93 CALM      30.07F                  
MILTON NAS     CLOUDY    75  72  90 N5        30.09F                  
CRESTVIEW      CLOUDY    77  75  93 CALM      30.10F                  
DUKE FIELD     PTCLDY    77  77 100 NW2       30.08F                  
VALPARAISO     MOCLDY    79  76  89 CALM      30.08F                  
PANAMA CITY    FAIR      78  75  90 CALM      30.08F                  
TYNDALL AFB    TSTM      77  75  94 NW6       30.09F                  
APALACHICOLA   HVY RAIN  78  75  90 W8        30.09F FOG              

STATION/POSITION SKY/WX   TEMP    WIND        PRES    WAVE   SWELL
                          AIR SEA DIR/SP/G            HT/PER HT/PER
                          (F)     (DEG/KT/KT) (MB)    (FT/S) (FT/S)
30.1N   87.6W              84 86  260/  6/  8 1018.5F   3/ 6   3/ 6
29.2N   88.2W              83 86  240/  8/ 10 1019.6R   3/ 7   3/ 7
28.8N   86.0W              83 86  240/  8/ 10 1019.4F   3/ 6   3/ 6
PANAMA CITY BEAC           80 87              1018.9
CAPE SAN BLAS    NOT AVBL
TOWER C                    79     220/ 17/ 20 1019.6F
28.5N   84.5W              77 85  300/  8/ 12 1021.0R   3/ 4   2/ 7

$$
FLZ011-016>038-118-127-128-134-139-239-160600-
NORTH FLORIDA
  
CITY           SKY/WX    TMP DP  RH WIND       PRES   REMARKS
MARIANNA       CLOUDY    77  77 100 S7        30.08F                  
TALLAHASSEE    CLOUDY    77  75  93 S14G32    30.10F                  
PERRY          TSTM      72  72 100 SW5       30.14R                  
CROSS CITY       N/A    N/A N/A N/A MISG      30.12F                  
LAKE CITY      CLOUDY    73  73 100 CALM      30.13S                  
GAINESVILLE    CLOUDY    74  73  97 CALM      30.13F                  
MAYPORT NAS    CLOUDY    77  73  87 W3        30.12F                  
JACKSONVILLE   CLOUDY    74  74 100 SW3       30.11F                  
JAX NAS        CLOUDY    81  74  79 NE6       30.13F                  
JAX CRAIG      CLOUDY    77  74  90 SW3       30.12F                  
JAX CECIL      CLOUDY    73  73 100 CALM      30.13F                  
FERNANDINA BEA FAIR      77  73  88 SW5       30.09F                  
ST AUGUSTINE   CLOUDY    77  74  90 CALM      30.13F                  

STATION/POSITION SKY/WX   TEMP    WIND        PRES    WAVE   SWELL
                          AIR SEA DIR/SP/G            HT/PER HT/PER
                          (F)     (DEG/KT/KT) (MB)    (FT/S) (FT/S)
SHELL POINT                81     210/ 11/ 12   N/A
KEATON BEACH               76     240/ 14/ 16 1020.2S
CEDAR KEY                  81      CALM  /  1 1020.3F
FERNANDINA                 76 87              1018.9
30.7N   81.3W                 84                N/A     2/ 6
MAYPORT                    77 85                N/A
31.4N   80.9W              80 84  270/  8/ 10 1019.0F   2/ 6   2/ 6
ST AUGUSTINE               77     230/  3/  4 1020.7F

$$
FLZ040-043>046-052-053-057-058-063-144-160600-
INTERIOR CENTRAL FLORIDA
  
CITY           SKY/WX    TMP DP  RH WIND       PRES   REMARKS
OCALA          CLOUDY    73  72  94 CALM      30.14F                  
THE VILLAGES     N/A     79  77  94 MISG      30.05S FOG              
LEESBURG       MOCLDY    79  73  82 CALM      30.15F                  
SANFORD        CLOUDY    79  71  76 SW3       30.13F                  
ORLANDO EXEC   MOCLDY    81  73  76 CALM      30.14F                  
ORLANDO INTL   MOCLDY    77  75  93 CALM      30.14F                  
WINTER HAVEN   PTCLDY    79  73  82 SE3       30.15F                  
LAKELAND       PTCLDY    77  72  83 CALM      30.15S                  
BARTOW         FAIR      75  73  94 E5        30.15S                  
OKEECHOBEE       N/A     73  72  94 MISG      30.14S                  

$$
FLZ041-047-054-059-064-141-147-160600-
EAST CENTRAL FLORIDA
  
CITY           SKY/WX    TMP DP  RH WIND       PRES   REMARKS
DAYTONA BEACH  CLOUDY    76  75  97 W3        30.14F                  
DELAND         MOCLDY    77  72  83 SW3       30.15S                  
JFK SPACE CTR  CLOUDY    78  75  91 W2        30.13S                  
CAPE CANAVERAL MOCLDY    80  73  80 SW3       30.12F                  
PATRICK AFB    MOCLDY    83  75  77 SW6       30.13S                  
MELBOURNE      CLOUDY    80  74  81 W6        30.13S                  
VERO BEACH     MOCLDY    77  73  87 CALM      30.12F                  
FT PIERCE      MOCLDY    76  73  91 CALM      30.12F                  
STUART         PTCLDY    77  73  88 CALM      30.13S                  

STATION/POSITION SKY/WX   TEMP    WIND        PRES    WAVE   SWELL
                          AIR SEA DIR/SP/G            HT/PER HT/PER
                          (F)     (DEG/KT/KT) (MB)    (FT/S) (FT/S)
28.5N   80.2W              84 85  190/  6/  6 1020.6F   1/ 8   2/ 8
28.9N   78.5W              83 85  220/  6/  8 1020.0F   2/ 7   2/ 7
TRIDENT PIER               83 86              1019.8
28.4N   80.5W                 85                N/A     1/13
27.6N   80.2W                 84                N/A     1/ 8

$$
FLZ050-056-061-142-242-148-248-149-249-151-251-155-255-
160-260-160600-
WEST CENTRAL FLORIDA
  
CITY           SKY/WX    TMP DP  RH WIND       PRES   REMARKS
CRYSTAL RIVER  CLOUDY    77  73  88 CALM      30.13F                  
INVERNESS      MOCLDY    75  64  69 CALM      30.14F                  
BROOKSVILLE    MOCLDY    75  73  93 CALM      30.15S                  
ZEPHYRHILLS    FAIR      70  70 100 CALM      30.16S                  
CLEARWATER     MOCLDY    79  73  82 N5        30.14S                  
TAMPA INTL     MOCLDY    81  73  76 CALM      30.14F                  
TAMPA EXEC     MOCLDY    77  73  88 CALM      30.15S                  
PLANT CITY     PTCLDY    77 N/A N/A CALM      30.17S                  
MACDILL AFB    MOCLDY    77  74  92 NE5       30.14F                  
ST PETERSBURG  MOCLDY    83  75  77 NE5       30.12F                  
SARASOTA       PTCLDY    79  75  87 E7        30.12S                  
VENICE           N/A    N/A N/A N/A MISG        N/A                   

STATION/POSITION SKY/WX   TEMP    WIND        PRES    WAVE   SWELL
                          AIR SEA DIR/SP/G            HT/PER HT/PER
                          (F)     (DEG/KT/KT) (MB)    (FT/S) (FT/S)
CEDAR KEY                  81      CALM  /  1 1020.3F
28.5N   84.5W              77 85  300/  8/ 12 1021.0R   3/ 4   2/ 7
27.3N   84.3W                 86                N/A     2/ 5
CLEARWATER BEACH NOT AVBL
MIDDLE TAMPA BAY           83                 1020.9
VENICE                     79 88   70/  3/  5 1020.0S

$$
FLZ066-069-070-075>078-162-262-165-265-160600-
SOUTHWEST FLORIDA AND KEYS
  
CITY           SKY/WX    TMP DP  RH WIND       PRES   REMARKS
PUNTA GORDA    PTCLDY    79  74  84 SE3       30.14F                  
FT MYERS       PTCLDY    77  75  93 E3        30.12F                  
SOUTHWEST INTL CLEAR     78  72  81 NE3       30.12F                  
NAPLES         PTCLDY    80  73  79 S5        30.12F                  
MARCO ISLAND   CLOUDY    79  73  83 CALM      30.12F                  
MARATHON       CLEAR     83  76  79 NE7       30.10F                  
KEY WEST NAS   CLEAR     82  76  81 NE7       30.11S                  
KEY WEST INTL  CLEAR     83  75  77 E6        30.11F                  

STATION/POSITION SKY/WX   TEMP    WIND        PRES    WAVE   SWELL
                          AIR SEA DIR/SP/G            HT/PER HT/PER
                          (F)     (DEG/KT/KT) (MB)    (FT/S) (FT/S)
VENICE                     79 88   70/  3/  5 1020.0S
NAPLES                     81 90  150/  3/  5 1020.5
DRY TORTUGAS               84      90/  8/  9 1019.2F
NW FL BAY                  83      70/ 10/ 11 1020.1F
SAND KEY                   83      70/ 11/ 13 1019.5F
SOMBRERO KEY               83      70/ 11/ 12 1020.0F
LONG KEY                   83 84   70/ 10/ 11 1020.1F
MOLASSES REEF              83 85   80/  9/ 11 1019.4F

$$
FLZ067-068-071>074-168-172>174-160600-
SOUTHEAST FLORIDA 
  
CITY           SKY/WX    TMP DP  RH WIND       PRES   REMARKS
W PALM BEACH   CLEAR     81  74  79 CALM      30.10F                  
FT LAUDER-EXEC CLEAR     80  76  87 E3        30.11F                  
FT LAUDERDALE  PTCLDY    83  74  74 E6        30.11F                  
POMPANO BEACH  CLEAR     83  74  74 E3        30.11F                  
PEMBROKE PINES CLEAR     81  74  79 CALM      30.12F                  
OPA LOCKA      CLEAR     81  74  79 CALM      30.12F                  
MIAMI          PTCLDY    82  75  79 NE3       30.11F                  
WEST KENDALL   CLEAR     80  74  81 CALM      30.11F                  
HOMESTEAD      CLEAR     80  74  82 E3        30.11F                  

STATION/POSITION SKY/WX   TEMP    WIND        PRES    WAVE   SWELL
                          AIR SEA DIR/SP/G            HT/PER HT/PER
                          (F)     (DEG/KT/KT) (MB)    (FT/S) (FT/S)
PORT EVERGLADES            83      90/  4/  7 1019.6
VIRGINIA KEY               83 85                N/A
LAKE WORTH                 83 85              1019.4F
FOWEY ROCKS                83 85   70/  8/  9 1019.8F
SETTLEMENT POINT           81     140/  3/  4 1020.4F

$$


Return to Home page


Western Regional Climate Center, wrcc@dri.edu